Weather Roundup
Issued by NWS

Home | Current Version | Previous Version | Text Only | Print | Product List | Glossary On
Versions: 1 2 3 4 5 6 7 8 9 10 11 12 13 14 15 16 17 18 19 20 21 22 23 24 25 26 27 28 29 30 31 32 33 34 35 36 37 38 39 40 41 42 43 44 45 46 47 48 49 50
760
NZUS93 KARX 251659
HRRWXR

CURRENT HOURLY OBSERVATIONS ACROSS
MUCH OF THE UPPER MISSISSIPPI VALLEY
NATIONAL WEATHER SERVICE LA CROSSE WI
1100 AM CST SAT FEB 25 2017


...SOUTHEAST MINNESOTA...


CITY           SKY/WX    TMP DP  RH WIND       PRES   REMARKS
ROCHESTER      SUNNY     17   7  64 NW20      29.93R WCI   1
ROCHESTER/MAYO FAIR      18   6  58 W15G24    29.93R WCI   4
WINONA           N/A     21   9  58 NW10      29.94R WCI  10
AUSTIN         SUNNY     18   9  68 NW15      29.95R WCI   3
ALBERT LEA     SUNNY     19  10  68 W10       29.97R WCI   8
DODGE CENTER   NOT AVBL
PRESTON        SUNNY     16   5  62 NW16G22   29.93R WCI   0
OWATONNA       SUNNY     21   7  53 W12       29.95S WCI   9
FARIBAULT      SUNNY     25   9  50 NW13      29.96R WCI  13
$$

...ELSEWHERE IN MINNESOTA...


CITY           SKY/WX    TMP DP  RH WIND       PRES   REMARKS
MINNEAPOLIS    SUNNY     26   3  37 NW16G23   29.94F WCI  14
INTNL FALLS    CLOUDY    15   1  53 W8        29.81F WCI   4
DULUTH         SUNNY     16   5  62 NW17      29.79S WCI   0
RED WING       SUNNY     21   1  42 NW9       29.93S WCI  11
REDWOOD FALLS  MOSUNNY   27  11  51 W8        29.98F WCI  19
MANKATO          N/A     25  12  58 NW13      29.98S WCI  14
WORTHINGTON    PTSUNNY   22  15  75 W13       29.99F WCI  10
FAIRMONT       SUNNY     24  13  62 W13       30.01R WCI  12
$$

...SOUTHWEST WISCONSIN...


CITY           SKY/WX    TMP DP  RH WIND       PRES   REMARKS
LA CROSSE      MOSUNNY   21   9  59 NW17      29.91R WCI   7
PRAIRIE DU CHI SUNNY     20   9  60 NW16G26   29.93R WCI   6
BOSCOBEL       SUNNY     22   9  57 NW12      29.91R WCI  10
LONE ROCK      MOSUNNY   20   9  62 NW17G25   29.88S WCI   5
PLATTEVILLE    SUNNY     19  14  79 NW5       29.88R WCI  13
FORT MC COY    PTSUNNY   18   9  67 NW17      29.89R WCI   3
MAUSTON-NEW LI CLOUDY    16   8  71 NW15G21   29.84S HAZE    WCI   1
VIROQUA        FAIR      18   8  66 NW15G21   29.85R WCI   4
WIS DELLS      CLOUDY    16   8  72 NW9G16    29.84R WCI   4
$$

...ELSEWHERE IN WISCONSIN...


CITY           SKY/WX    TMP DP  RH WIND       PRES   REMARKS
MILWAUKEE      FLURRIES  21  10  62 NW14G23   29.80R WCI   8
MADISON        FLURRIES  17   9  70 NW15G22   29.83R WCI   2
GREEN BAY      MIX PCPN  22  14  71 W22G28    29.72R WCI   6
EAU CLAIRE     NOT AVBL
BLACK RVR FLS  LGT SNOW  18   6  59 NE12G21   29.88R WCI   6
MEDFORD        CLOUDY    12   5  72 NW12      29.76R WCI  -2
WAUSAU         FLURRIES  16   8  71 NW16G22   29.75R WCI   1
WIS RAPIDS     CLOUDY    17   7  64 NW18      29.82R WCI   1
MARSHFIELD     FLURRIES  14   5  67 NW16      29.79R WCI  -2
RICE LAKE      SUNNY     19   4  52 NW12      29.87F WCI   6
$$

...NORTHEAST IOWA...


CITY           SKY/WX    TMP DP  RH WIND       PRES   REMARKS
WATERLOO       SUNNY     20  10  65 NW16G22   30.01R WCI   6
DUBUQUE        MOSUNNY   19  12  74 W15       29.91R WCI   5
DECORAH        SUNNY     18   7  62 NW16G26   29.92R WCI   3
MASON CITY     SUNNY     18  11  74 NW16      30.01R WCI   3
CHARLES CITY   SUNNY     18   9  68 NW20G25   29.98S WCI   1
OELWEIN        SUNNY     19  12  73 NW23      29.97R WCI   2
$$

...ELSEWHERE IN IOWA...


CITY           SKY/WX    TMP DP  RH WIND       PRES   REMARKS
DES MOINES     PTSUNNY   25  11  55 NW13      30.09R WCI  14
IOWA CITY      MOSUNNY   23  13  65 NW16G25   30.03R WCI  10
FORT DODGE     SUNNY     19  12  73 NW6       30.06S WCI  11
MARSHALLTOWN   SUNNY     21  12  68 NW21      30.03R WCI   5
CEDAR RAPIDS   SUNNY     20  13  74 NW23      29.98R WCI   3
$$

...NORTHERN ILLINOIS...


CITY           SKY/WX    TMP DP  RH WIND       PRES   REMARKS
CHICAGO-OHARE  FLURRIES  25  14  63 W14       29.83R WCI  13
CHICAGO-MIDWAY FLURRIES  24  12  60 W16G24    29.85R WCI  11
MOLINE         PTSUNNY   24  13  62 W22G33    29.97R WCI   9
ROCKFORD       FLURRIES  23  13  65 W21G28    29.89R WCI   8
PEORIA         PTSUNNY   25  14  63 NW16G26   29.98R WCI  12
$$

NOTE: "FAIR" INDICATES FEW OR NO CLOUDS BELOW 12,000 FEET WITH NO
SIGNIFICANT WEATHER AND/OR OBSTRUCTIONS TO VISIBILITY. WIND
SPEEDS ARE IN MILES-PER-HOUR.




USA.gov is the U.S. government's official web portal to all federal, state and local government web resources and services.